owner,sensor,date,latitude,longitude,air_temperature,qcFlag 
DISL,ioos:station:DISL:MHPA:1,2013-08-01T00:00:00Z,30.6671,-87.9365,29.14,1111122 
DISL,ioos:station:DISL:MHPA:1,2013-08-01T00:30:00Z,30.6671,-87.9365,28.95,1111122 
DISL,ioos:station:DISL:MHPA:1,2013-08-01T01:00:00Z,30.6671,-87.9365,28.21,1111122 
DISL,ioos:station:DISL:MHPA:1,2013-08-01T01:30:00Z,30.6671,-87.9365,27.79,1111122 
DISL,ioos:station:DISL:MHPA:1,2013-08-01T02:00:00Z,30.6671,-87.9365,27.7,1111122 
DISL,ioos:station:DISL:MHPA:1,2013-08-01T02:30:00Z,30.6671,-87.9365,27.38,1111122 
DISL,ioos:station:DISL:MHPA:1,2013-08-01T03:00:00Z,30.6671,-87.9365,27.45,1111122 
DISL,ioos:station:DISL:MHPA:1,2013-08-01T03:30:00Z,30.6671,-87.9365,27.67,1111122 
DISL,ioos:station:DISL:MHPA:1,2013-08-01T04:00:00Z,30.6671,-87.9365,27.5,1111122 
DISL,ioos:station:DISL:MHPA:1,2013-08-01T04:30:00Z,30.6671,-87.9365,29.0,1111122 
DISL,ioos:station:DISL:MHPA:1,2013-08-01T05:00:00Z,30.6671,-87.9365,29.17,1111122 
DISL,ioos:station:DISL:MHPA:1,2013-08-01T05:30:00Z,30.6671,-87.9365,29.26,1111122 
DISL,ioos:station:DISL:MHPA:1,2013-08-01T06:00:00Z,30.6671,-87.9365,29.31,1111122 
DISL,ioos:station:DISL:MHPA:1,2013-08-01T06:30:00Z,30.6671,-87.9365,29.2,1111122 
DISL,ioos:station:DISL:MHPA:1,2013-08-01T07:00:00Z,30.6671,-87.9365,29.18,1111122 
DISL,ioos:station:DISL:MHPA:1,2013-08-01T07:30:00Z,30.6671,-87.9365,29.07,1111122 
DISL,ioos:station:DISL:MHPA:1,2013-08-01T08:00:00Z,30.6671,-87.9365,29.18,1111122 
DISL,ioos:station:DISL:MHPA:1,2013-08-01T08:30:00Z,30.6671,-87.9365,29.09,1111122 
DISL,ioos:station:DISL:MHPA:1,2013-08-01T09:00:00Z,30.6671,-87.9365,28.97,1111122 
DISL,ioos:station:DISL:MHPA:1,2013-08-01T09:30:00Z,30.6671,-87.9365,28.58,1111122 
DISL,ioos:station:DISL:MHPA:1,2013-08-01T10:00:00Z,30.6671,-87.9365,28.27,1111122 
DISL,ioos:station:DISL:MHPA:1,2013-08-01T10:30:00Z,30.6671,-87.9365,28.18,1111122 
DISL,ioos:station:DISL:MHPA:1,2013-08-01T11:00:00Z,30.6671,-87.9365,28.08,1111122 
DISL,ioos:station:DISL:MHPA:1,2013-08-01T11:30:00Z,30.6671,-87.9365,28.05,1111122 
DISL,ioos:station:DISL:MHPA:1,2013-08-01T12:00:00Z,30.6671,-87.9365,28.2,1111122 
DISL,ioos:station:DISL:MHPA:1,2013-08-01T12:30:00Z,30.6671,-87.9365,28.25,1111122 
DISL,ioos:station:DISL:MHPA:1,2013-08-01T13:00:00Z,30.6671,-87.9365,28.24,1111122 
DISL,ioos:station:DISL:MHPA:1,2013-08-01T13:30:00Z,30.6671,-87.9365,28.49,1111122 
DISL,ioos:station:DISL:MHPA:1,2013-08-01T14:00:00Z,30.6671,-87.9365,28.95,1111122 
DISL,ioos:station:DISL:MHPA:1,2013-08-01T14:30:00Z,30.6671,-87.9365,28.95,1111122 
DISL,ioos:station:DISL:MHPA:1,2013-08-01T15:00:00Z,30.6671,-87.9365,29.45,1111122 
DISL,ioos:station:DISL:MHPA:1,2013-08-01T15:30:00Z,30.6671,-87.9365,29.51,1111122 
DISL,ioos:station:DISL:MHPA:1,2013-08-01T16:00:00Z,30.6671,-87.9365,30.19,1111122 
DISL,ioos:station:DISL:MHPA:1,2013-08-01T16:30:00Z,30.6671,-87.9365,30.95,1111122 
DISL,ioos:station:DISL:MHPA:1,2013-08-01T17:00:00Z,30.6671,-87.9365,31.83,1111122 
DISL,ioos:station:DISL:MHPA:1,2013-08-01T17:30:00Z,30.6671,-87.9365,31.99,1111122 
DISL,ioos:station:DISL:MHPA:1,2013-08-01T18:00:00Z,30.6671,-87.9365,30.77,1111122 
DISL,ioos:station:DISL:MHPA:1,2013-08-01T18:30:00Z,30.6671,-87.9365,30.77,1111122 
DISL,ioos:station:DISL:MHPA:1,2013-08-01T19:00:00Z,30.6671,-87.9365,30.71,1111122 
DISL,ioos:station:DISL:MHPA:1,2013-08-01T19:30:00Z,30.6671,-87.9365,31.85,1111122 
DISL,ioos:station:DISL:MHPA:1,2013-08-01T20:00:00Z,30.6671,-87.9365,31.05,1111122 
DISL,ioos:station:DISL:MHPA:1,2013-08-01T20:30:00Z,30.6671,-87.9365,26.07,1111122 
DISL,ioos:station:DISL:MHPA:1,2013-08-01T21:00:00Z,30.6671,-87.9365,26.68,1111122 
DISL,ioos:station:DISL:MHPA:1,2013-08-01T21:30:00Z,30.6671,-87.9365,26.58,1111122 
DISL,ioos:station:DISL:MHPA:1,2013-08-01T22:00:00Z,30.6671,-87.9365,25.48,1111122 
DISL,ioos:station:DISL:MHPA:1,2013-08-01T22:30:00Z,30.6671,-87.9365,26.6,1111122 
DISL,ioos:station:DISL:MHPA:1,2013-08-01T23:00:00Z,30.6671,-87.9365,26.16,1111122 
DISL,ioos:station:DISL:MHPA:1,2013-08-01T23:30:00Z,30.6671,-87.9365,26.19,1111122 
DISL,ioos:station:DISL:MHPA:1,2013-08-02T00:00:00Z,30.6671,-87.9365,25.75,1111122 
DISL,ioos:station:DISL:MHPA:1,2013-08-02T00:30:00Z,30.6671,-87.9365,25.37,1111122 
DISL,ioos:station:DISL:MHPA:1,2013-08-02T01:00:00Z,30.6671,-87.9365,25.42,1111122 
DISL,ioos:station:DISL:MHPA:1,2013-08-02T01:30:00Z,30.6671,-87.9365,25.28,1111122 
DISL,ioos:station:DISL:MHPA:1,2013-08-02T02:00:00Z,30.6671,-87.9365,25.56,1111122 
DISL,ioos:station:DISL:MHPA:1,2013-08-02T02:30:00Z,30.6671,-87.9365,25.51,1111122 
DISL,ioos:station:DISL:MHPA:1,2013-08-02T03:00:00Z,30.6671,-87.9365,25.22,1111122 
DISL,ioos:station:DISL:MHPA:1,2013-08-02T03:30:00Z,30.6671,-87.9365,25.22,1111122 
DISL,ioos:station:DISL:MHPA:1,2013-08-02T04:00:00Z,30.6671,-87.9365,25.39,1111122 
DISL,ioos:station:DISL:MHPA:1,2013-08-02T04:30:00Z,30.6671,-87.9365,25.3,1111122 
DISL,ioos:station:DISL:MHPA:1,2013-08-02T05:00:00Z,30.6671,-87.9365,24.98,1111122 
DISL,ioos:station:DISL:MHPA:1,2013-08-02T05:30:00Z,30.6671,-87.9365,24.89,1111122 
DISL,ioos:station:DISL:MHPA:1,2013-08-02T06:00:00Z,30.6671,-87.9365,24.8,1111122 
DISL,ioos:station:DISL:MHPA:1,2013-08-02T06:30:00Z,30.6671,-87.9365,24.85,1111122 
DISL,ioos:station:DISL:MHPA:1,2013-08-02T07:00:00Z,30.6671,-87.9365,24.61,1111122 
DISL,ioos:station:DISL:MHPA:1,2013-08-02T07:30:00Z,30.6671,-87.9365,24.72,1111122 
DISL,ioos:station:DISL:MHPA:1,2013-08-02T08:00:00Z,30.6671,-87.9365,24.54,1111122 
DISL,ioos:station:DISL:MHPA:1,2013-08-02T08:30:00Z,30.6671,-87.9365,24.32,1111122 
DISL,ioos:station:DISL:MHPA:1,2013-08-02T09:00:00Z,30.6671,-87.9365,24.4,1111122 
DISL,ioos:station:DISL:MHPA:1,2013-08-02T09:30:00Z,30.6671,-87.9365,24.49,1111122 
DISL,ioos:station:DISL:MHPA:1,2013-08-02T10:00:00Z,30.6671,-87.9365,24.27,1111122 
DISL,ioos:station:DISL:MHPA:1,2013-08-02T10:30:00Z,30.6671,-87.9365,24.32,1111122 
DISL,ioos:station:DISL:MHPA:1,2013-08-02T11:00:00Z,30.6671,-87.9365,24.2,1111122 
DISL,ioos:station:DISL:MHPA:1,2013-08-02T11:30:00Z,30.6671,-87.9365,24.29,1111122 
DISL,ioos:station:DISL:MHPA:1,2013-08-02T12:00:00Z,30.6671,-87.9365,24.75,1111122 
DISL,ioos:station:DISL:MHPA:1,2013-08-02T12:30:00Z,30.6671,-87.9365,25.0,1111122 
DISL,ioos:station:DISL:MHPA:1,2013-08-02T13:00:00Z,30.6671,-87.9365,25.8,1111122 
DISL,ioos:station:DISL:MHPA:1,2013-08-02T13:30:00Z,30.6671,-87.9365,26.11,1111122 
DISL,ioos:station:DISL:MHPA:1,2013-08-02T14:00:00Z,30.6671,-87.9365,26.6,1111122 
DISL,ioos:station:DISL:MHPA:1,2013-08-02T14:30:00Z,30.6671,-87.9365,27.2,1111122 
DISL,ioos:station:DISL:MHPA:1,2013-08-02T15:00:00Z,30.6671,-87.9365,28.11,1111122 
DISL,ioos:station:DISL:MHPA:1,2013-08-02T15:30:00Z,30.6671,-87.9365,28.93,1111122 
DISL,ioos:station:DISL:MHPA:1,2013-08-02T16:00:00Z,30.6671,-87.9365,29.43,1111122 
DISL,ioos:station:DISL:MHPA:1,2013-08-02T16:30:00Z,30.6671,-87.9365,30.23,1111122 
DISL,ioos:station:DISL:MHPA:1,2013-08-02T17:00:00Z,30.6671,-87.9365,30.85,1111122 
DISL,ioos:station:DISL:MHPA:1,2013-08-02T17:30:00Z,30.6671,-87.9365,31.3,1111122 
DISL,ioos:station:DISL:MHPA:1,2013-08-02T18:00:00Z,30.6671,-87.9365,31.95,1111122 
DISL,ioos:station:DISL:MHPA:1,2013-08-02T18:30:00Z,30.6671,-87.9365,31.72,1111122 
DISL,ioos:station:DISL:MHPA:1,2013-08-02T19:00:00Z,30.6671,-87.9365,32.41,1111122 
DISL,ioos:station:DISL:MHPA:1,2013-08-02T19:30:00Z,30.6671,-87.9365,32.35,1111122 
DISL,ioos:station:DISL:MHPA:1,2013-08-02T20:00:00Z,30.6671,-87.9365,32.72,1111122 
DISL,ioos:station:DISL:MHPA:1,2013-08-02T20:30:00Z,30.6671,-87.9365,33.04,1111122 
DISL,ioos:station:DISL:MHPA:1,2013-08-02T21:00:00Z,30.6671,-87.9365,33.42,1111122 
DISL,ioos:station:DISL:MHPA:1,2013-08-02T21:30:00Z,30.6671,-87.9365,33.89,1111122 
DISL,ioos:station:DISL:MHPA:1,2013-08-02T22:00:00Z,30.6671,-87.9365,31.04,1111122 
DISL,ioos:station:DISL:MHPA:1,2013-08-02T22:30:00Z,30.6671,-87.9365,30.79,1111122 
DISL,ioos:station:DISL:MHPA:1,2013-08-02T23:00:00Z,30.6671,-87.9365,31.08,1111122 
DISL,ioos:station:DISL:MHPA:1,2013-08-02T23:30:00Z,30.6671,-87.9365,31.02,1111122 
DISL,ioos:station:DISL:MHPA:1,2013-08-03T00:00:00Z,30.6671,-87.9365,30.68,1111122 
DISL,ioos:station:DISL:MHPA:1,2013-08-03T00:30:00Z,30.6671,-87.9365,30.58,1111122 
DISL,ioos:station:DISL:MHPA:1,2013-08-03T01:00:00Z,30.6671,-87.9365,30.48,1111122 
DISL,ioos:station:DISL:MHPA:1,2013-08-03T01:30:00Z,30.6671,-87.9365,30.2,1111122 
DISL,ioos:station:DISL:MHPA:1,2013-08-03T02:00:00Z,30.6671,-87.9365,30.05,1111122 
DISL,ioos:station:DISL:MHPA:1,2013-08-03T02:30:00Z,30.6671,-87.9365,29.74,1111122 
DISL,ioos:station:DISL:MHPA:1,2013-08-03T03:00:00Z,30.6671,-87.9365,29.68,1111122 
DISL,ioos:station:DISL:MHPA:1,2013-08-03T03:30:00Z,30.6671,-87.9365,29.58,1111122 
DISL,ioos:station:DISL:MHPA:1,2013-08-03T04:00:00Z,30.6671,-87.9365,29.61,1111122 
DISL,ioos:station:DISL:MHPA:1,2013-08-03T04:30:00Z,30.6671,-87.9365,29.54,1111122 
DISL,ioos:station:DISL:MHPA:1,2013-08-03T05:00:00Z,30.6671,-87.9365,29.44,1111122 
DISL,ioos:station:DISL:MHPA:1,2013-08-03T05:30:00Z,30.6671,-87.9365,29.33,1111122 
DISL,ioos:station:DISL:MHPA:1,2013-08-03T06:00:00Z,30.6671,-87.9365,29.18,1111122 
DISL,ioos:station:DISL:MHPA:1,2013-08-03T06:30:00Z,30.6671,-87.9365,29.16,1111122 
DISL,ioos:station:DISL:MHPA:1,2013-08-03T07:00:00Z,30.6671,-87.9365,29.19,1111122 
DISL,ioos:station:DISL:MHPA:1,2013-08-03T07:30:00Z,30.6671,-87.9365,28.97,1111122 
DISL,ioos:station:DISL:MHPA:1,2013-08-03T08:00:00Z,30.6671,-87.9365,29.05,1111122 
DISL,ioos:station:DISL:MHPA:1,2013-08-03T08:30:00Z,30.6671,-87.9365,28.65,1111122 
DISL,ioos:station:DISL:MHPA:1,2013-08-03T09:00:00Z,30.6671,-87.9365,27.33,1111122 
DISL,ioos:station:DISL:MHPA:1,2013-08-03T09:30:00Z,30.6671,-87.9365,26.79,1111122 
DISL,ioos:station:DISL:MHPA:1,2013-08-03T10:00:00Z,30.6671,-87.9365,26.69,1111122 
DISL,ioos:station:DISL:MHPA:1,2013-08-03T10:30:00Z,30.6671,-87.9365,26.47,1111122 
DISL,ioos:station:DISL:MHPA:1,2013-08-03T11:00:00Z,30.6671,-87.9365,26.27,1111122 
DISL,ioos:station:DISL:MHPA:1,2013-08-03T11:30:00Z,30.6671,-87.9365,26.3,1111122 
DISL,ioos:station:DISL:MHPA:1,2013-08-03T12:00:00Z,30.6671,-87.9365,26.7,1111122 
DISL,ioos:station:DISL:MHPA:1,2013-08-03T12:30:00Z,30.6671,-87.9365,27.42,1111122 
DISL,ioos:station:DISL:MHPA:1,2013-08-03T13:00:00Z,30.6671,-87.9365,28.25,1111122 
DISL,ioos:station:DISL:MHPA:1,2013-08-03T13:30:00Z,30.6671,-87.9365,28.99,1111122 
DISL,ioos:station:DISL:MHPA:1,2013-08-03T14:00:00Z,30.6671,-87.9365,29.1,1111122 
DISL,ioos:station:DISL:MHPA:1,2013-08-03T14:30:00Z,30.6671,-87.9365,29.28,1111122 
DISL,ioos:station:DISL:MHPA:1,2013-08-03T15:00:00Z,30.6671,-87.9365,29.65,1111122 
DISL,ioos:station:DISL:MHPA:1,2013-08-03T15:30:00Z,30.6671,-87.9365,29.96,1111122 
DISL,ioos:station:DISL:MHPA:1,2013-08-03T16:00:00Z,30.6671,-87.9365,30.95,1111122 
DISL,ioos:station:DISL:MHPA:1,2013-08-03T16:30:00Z,30.6671,-87.9365,31.56,1111122 
DISL,ioos:station:DISL:MHPA:1,2013-08-03T17:00:00Z,30.6671,-87.9365,31.98,1111122 
DISL,ioos:station:DISL:MHPA:1,2013-08-03T17:30:00Z,30.6671,-87.9365,32.48,1111122 
DISL,ioos:station:DISL:MHPA:1,2013-08-03T18:00:00Z,30.6671,-87.9365,31.74,1111122 
DISL,ioos:station:DISL:MHPA:1,2013-08-03T18:30:00Z,30.6671,-87.9365,31.95,1111122 
DISL,ioos:station:DISL:MHPA:1,2013-08-03T19:00:00Z,30.6671,-87.9365,32.03,1111122 
DISL,ioos:station:DISL:MHPA:1,2013-08-03T19:30:00Z,30.6671,-87.9365,32.5,1111122 
DISL,ioos:station:DISL:MHPA:1,2013-08-03T20:00:00Z,30.6671,-87.9365,32.92,1111122 
DISL,ioos:station:DISL:MHPA:1,2013-08-03T20:30:00Z,30.6671,-87.9365,33.79,1111122 
DISL,ioos:station:DISL:MHPA:1,2013-08-03T21:00:00Z,30.6671,-87.9365,32.68,1111122 
DISL,ioos:station:DISL:MHPA:1,2013-08-03T21:30:00Z,30.6671,-87.9365,32.26,1111122 
DISL,ioos:station:DISL:MHPA:1,2013-08-03T22:00:00Z,30.6671,-87.9365,32.32,1111122 
DISL,ioos:station:DISL:MHPA:1,2013-08-03T22:30:00Z,30.6671,-87.9365,31.83,1111122 
DISL,ioos:station:DISL:MHPA:1,2013-08-03T23:00:00Z,30.6671,-87.9365,31.87,1111122 
DISL,ioos:station:DISL:MHPA:1,2013-08-03T23:30:00Z,30.6671,-87.9365,31.38,1111122 
DISL,ioos:station:DISL:MHPA:1,2013-08-04T00:00:00Z,30.6671,-87.9365,31.08,1111122 
DISL,ioos:station:DISL:MHPA:1,2013-08-04T00:30:00Z,30.6671,-87.9365,31.0,1111122 
DISL,ioos:station:DISL:MHPA:1,2013-08-04T01:00:00Z,30.6671,-87.9365,30.7,1111122 
DISL,ioos:station:DISL:MHPA:1,2013-08-04T01:30:00Z,30.6671,-87.9365,30.43,1111122 
DISL,ioos:station:DISL:MHPA:1,2013-08-04T02:00:00Z,30.6671,-87.9365,30.3,1111122 
DISL,ioos:station:DISL:MHPA:1,2013-08-04T02:30:00Z,30.6671,-87.9365,30.12,1111122 
DISL,ioos:station:DISL:MHPA:1,2013-08-04T03:00:00Z,30.6671,-87.9365,29.92,1111122 
DISL,ioos:station:DISL:MHPA:1,2013-08-04T03:30:00Z,30.6671,-87.9365,29.86,1111122 
DISL,ioos:station:DISL:MHPA:1,2013-08-04T04:00:00Z,30.6671,-87.9365,29.98,1111122 
DISL,ioos:station:DISL:MHPA:1,2013-08-04T04:30:00Z,30.6671,-87.9365,30.0,1111122 
DISL,ioos:station:DISL:MHPA:1,2013-08-04T05:00:00Z,30.6671,-87.9365,29.79,1111122 
DISL,ioos:station:DISL:MHPA:1,2013-08-04T05:30:00Z,30.6671,-87.9365,29.53,1111122 
DISL,ioos:station:DISL:MHPA:1,2013-08-04T06:00:00Z,30.6671,-87.9365,29.44,1111122 
DISL,ioos:station:DISL:MHPA:1,2013-08-04T06:30:00Z,30.6671,-87.9365,29.4,1111122 
DISL,ioos:station:DISL:MHPA:1,2013-08-04T07:00:00Z,30.6671,-87.9365,29.35,1111122 
DISL,ioos:station:DISL:MHPA:1,2013-08-04T07:30:00Z,30.6671,-87.9365,29.34,1111122 
DISL,ioos:station:DISL:MHPA:1,2013-08-04T08:00:00Z,30.6671,-87.9365,28.65,1111122 
DISL,ioos:station:DISL:MHPA:1,2013-08-04T08:30:00Z,30.6671,-87.9365,28.18,1111122 
DISL,ioos:station:DISL:MHPA:1,2013-08-04T09:00:00Z,30.6671,-87.9365,27.97,1111122 
DISL,ioos:station:DISL:MHPA:1,2013-08-04T09:30:00Z,30.6671,-87.9365,27.87,1111122 
DISL,ioos:station:DISL:MHPA:1,2013-08-04T10:00:00Z,30.6671,-87.9365,27.55,1111122 
DISL,ioos:station:DISL:MHPA:1,2013-08-04T10:30:00Z,30.6671,-87.9365,27.32,1111122 
DISL,ioos:station:DISL:MHPA:1,2013-08-04T11:00:00Z,30.6671,-87.9365,27.28,1111122 
DISL,ioos:station:DISL:MHPA:1,2013-08-04T11:30:00Z,30.6671,-87.9365,27.16,1111122 
DISL,ioos:station:DISL:MHPA:1,2013-08-04T12:00:00Z,30.6671,-87.9365,27.88,1111122 
DISL,ioos:station:DISL:MHPA:1,2013-08-04T12:30:00Z,30.6671,-87.9365,28.3,1111122 
DISL,ioos:station:DISL:MHPA:1,2013-08-04T13:00:00Z,30.6671,-87.9365,28.71,1111122 
DISL,ioos:station:DISL:MHPA:1,2013-08-04T13:30:00Z,30.6671,-87.9365,28.6,1111122 
DISL,ioos:station:DISL:MHPA:1,2013-08-04T14:00:00Z,30.6671,-87.9365,29.21,1111122 
DISL,ioos:station:DISL:MHPA:1,2013-08-04T14:30:00Z,30.6671,-87.9365,29.96,1111122 
DISL,ioos:station:DISL:MHPA:1,2013-08-04T15:00:00Z,30.6671,-87.9365,30.61,1111122 
DISL,ioos:station:DISL:MHPA:1,2013-08-04T15:30:00Z,30.6671,-87.9365,31.11,1111122 
DISL,ioos:station:DISL:MHPA:1,2013-08-04T16:00:00Z,30.6671,-87.9365,31.69,1111122 
DISL,ioos:station:DISL:MHPA:1,2013-08-04T16:30:00Z,30.6671,-87.9365,31.96,1111122 
DISL,ioos:station:DISL:MHPA:1,2013-08-04T17:00:00Z,30.6671,-87.9365,32.4,1111122 
DISL,ioos:station:DISL:MHPA:1,2013-08-04T17:30:00Z,30.6671,-87.9365,32.72,1111122 
DISL,ioos:station:DISL:MHPA:1,2013-08-04T18:00:00Z,30.6671,-87.9365,33.23,1111122 
DISL,ioos:station:DISL:MHPA:1,2013-08-04T18:30:00Z,30.6671,-87.9365,33.28,1111122 
DISL,ioos:station:DISL:MHPA:1,2013-08-04T19:00:00Z,30.6671,-87.9365,33.48,1111122 
DISL,ioos:station:DISL:MHPA:1,2013-08-04T19:30:00Z,30.6671,-87.9365,32.85,1111122 
DISL,ioos:station:DISL:MHPA:1,2013-08-04T20:00:00Z,30.6671,-87.9365,32.79,1111122 
DISL,ioos:station:DISL:MHPA:1,2013-08-04T20:30:00Z,30.6671,-87.9365,32.85,1111122 
DISL,ioos:station:DISL:MHPA:1,2013-08-04T21:00:00Z,30.6671,-87.9365,32.74,1111122 
DISL,ioos:station:DISL:MHPA:1,2013-08-04T21:30:00Z,30.6671,-87.9365,32.32,1111122 
DISL,ioos:station:DISL:MHPA:1,2013-08-04T22:00:00Z,30.6671,-87.9365,32.72,1111122 
DISL,ioos:station:DISL:MHPA:1,2013-08-04T22:30:00Z,30.6671,-87.9365,28.9,1111122 
DISL,ioos:station:DISL:MHPA:1,2013-08-04T23:00:00Z,30.6671,-87.9365,26.93,1111122 
DISL,ioos:station:DISL:MHPA:1,2013-08-04T23:30:00Z,30.6671,-87.9365,27.17,1111122 
DISL,ioos:station:DISL:MHPA:1,2013-08-05T00:00:00Z,30.6671,-87.9365,26.94,1111122 
DISL,ioos:station:DISL:MHPA:1,2013-08-05T00:30:00Z,30.6671,-87.9365,26.85,1111122 
DISL,ioos:station:DISL:MHPA:1,2013-08-05T01:00:00Z,30.6671,-87.9365,26.76,1111122 
DISL,ioos:station:DISL:MHPA:1,2013-08-05T01:30:00Z,30.6671,-87.9365,26.6,1111122 
DISL,ioos:station:DISL:MHPA:1,2013-08-05T02:00:00Z,30.6671,-87.9365,26.45,1111122 
DISL,ioos:station:DISL:MHPA:1,2013-08-05T02:30:00Z,30.6671,-87.9365,26.83,1111122 
DISL,ioos:station:DISL:MHPA:1,2013-08-05T03:00:00Z,30.6671,-87.9365,26.64,1111122 
DISL,ioos:station:DISL:MHPA:1,2013-08-05T03:30:00Z,30.6671,-87.9365,26.46,1111122 
DISL,ioos:station:DISL:MHPA:1,2013-08-05T04:00:00Z,30.6671,-87.9365,26.45,1111122 
DISL,ioos:station:DISL:MHPA:1,2013-08-05T04:30:00Z,30.6671,-87.9365,26.21,1111122 
DISL,ioos:station:DISL:MHPA:1,2013-08-05T05:00:00Z,30.6671,-87.9365,26.03,1111122 
DISL,ioos:station:DISL:MHPA:1,2013-08-05T05:30:00Z,30.6671,-87.9365,26.16,1111122 
DISL,ioos:station:DISL:MHPA:1,2013-08-05T06:00:00Z,30.6671,-87.9365,26.19,1111122 
DISL,ioos:station:DISL:MHPA:1,2013-08-05T06:30:00Z,30.6671,-87.9365,26.28,1111122 
DISL,ioos:station:DISL:MHPA:1,2013-08-05T07:00:00Z,30.6671,-87.9365,26.03,1111122 
DISL,ioos:station:DISL:MHPA:1,2013-08-05T07:30:00Z,30.6671,-87.9365,25.98,1111122 
DISL,ioos:station:DISL:MHPA:1,2013-08-05T08:00:00Z,30.6671,-87.9365,25.94,1111122 
DISL,ioos:station:DISL:MHPA:1,2013-08-05T08:30:00Z,30.6671,-87.9365,26.4,1111122 
DISL,ioos:station:DISL:MHPA:1,2013-08-05T09:00:00Z,30.6671,-87.9365,26.34,1111122 
DISL,ioos:station:DISL:MHPA:1,2013-08-05T09:30:00Z,30.6671,-87.9365,26.45,1111122 
DISL,ioos:station:DISL:MHPA:1,2013-08-05T10:00:00Z,30.6671,-87.9365,26.16,1111122 
DISL,ioos:station:DISL:MHPA:1,2013-08-05T10:30:00Z,30.6671,-87.9365,26.09,1111122 
DISL,ioos:station:DISL:MHPA:1,2013-08-05T11:00:00Z,30.6671,-87.9365,25.99,1111122 
DISL,ioos:station:DISL:MHPA:1,2013-08-05T11:30:00Z,30.6671,-87.9365,25.79,1111122 
DISL,ioos:station:DISL:MHPA:1,2013-08-05T12:00:00Z,30.6671,-87.9365,26.09,1111122 
DISL,ioos:station:DISL:MHPA:1,2013-08-05T12:30:00Z,30.6671,-87.9365,26.72,1111122 
DISL,ioos:station:DISL:MHPA:1,2013-08-05T13:00:00Z,30.6671,-87.9365,27.17,1111122 
DISL,ioos:station:DISL:MHPA:1,2013-08-05T13:30:00Z,30.6671,-87.9365,27.81,1111122 
DISL,ioos:station:DISL:MHPA:1,2013-08-05T14:00:00Z,30.6671,-87.9365,28.5,1111122 
DISL,ioos:station:DISL:MHPA:1,2013-08-05T14:30:00Z,30.6671,-87.9365,28.96,1111122 
DISL,ioos:station:DISL:MHPA:1,2013-08-05T15:00:00Z,30.6671,-87.9365,29.32,1111122 
DISL,ioos:station:DISL:MHPA:1,2013-08-05T15:30:00Z,30.6671,-87.9365,30.1,1111122 
DISL,ioos:station:DISL:MHPA:1,2013-08-05T16:00:00Z,30.6671,-87.9365,30.48,1111122 
DISL,ioos:station:DISL:MHPA:1,2013-08-05T16:30:00Z,30.6671,-87.9365,31.27,1111122 
DISL,ioos:station:DISL:MHPA:1,2013-08-05T17:00:00Z,30.6671,-87.9365,31.66,1111122 
DISL,ioos:station:DISL:MHPA:1,2013-08-05T17:30:00Z,30.6671,-87.9365,32.32,1111122 
DISL,ioos:station:DISL:MHPA:1,2013-08-05T18:00:00Z,30.6671,-87.9365,32.27,1111122 
DISL,ioos:station:DISL:MHPA:1,2013-08-05T18:30:00Z,30.6671,-87.9365,32.84,1111122 
DISL,ioos:station:DISL:MHPA:1,2013-08-05T19:00:00Z,30.6671,-87.9365,32.03,1111122 
DISL,ioos:station:DISL:MHPA:1,2013-08-05T19:30:00Z,30.6671,-87.9365,31.02,1111122 
DISL,ioos:station:DISL:MHPA:1,2013-08-05T20:00:00Z,30.6671,-87.9365,29.01,1111122 
DISL,ioos:station:DISL:MHPA:1,2013-08-05T20:30:00Z,30.6671,-87.9365,30.13,1111122 
DISL,ioos:station:DISL:MHPA:1,2013-08-05T21:00:00Z,30.6671,-87.9365,30.14,1111122 
DISL,ioos:station:DISL:MHPA:1,2013-08-05T21:30:00Z,30.6671,-87.9365,30.16,1111122 
DISL,ioos:station:DISL:MHPA:1,2013-08-05T22:00:00Z,30.6671,-87.9365,30.29,1111122 
DISL,ioos:station:DISL:MHPA:1,2013-08-05T22:30:00Z,30.6671,-87.9365,28.55,1111122 
DISL,ioos:station:DISL:MHPA:1,2013-08-05T23:00:00Z,30.6671,-87.9365,27.74,1111122 
DISL,ioos:station:DISL:MHPA:1,2013-08-05T23:30:00Z,30.6671,-87.9365,26.6,1111122 
DISL,ioos:station:DISL:MHPA:1,2013-08-06T00:00:00Z,30.6671,-87.9365,25.94,1111122 
DISL,ioos:station:DISL:MHPA:1,2013-08-06T00:30:00Z,30.6671,-87.9365,25.59,1111122 
DISL,ioos:station:DISL:MHPA:1,2013-08-06T01:00:00Z,30.6671,-87.9365,25.84,1111122 
DISL,ioos:station:DISL:MHPA:1,2013-08-06T01:30:00Z,30.6671,-87.9365,26.07,1111122 
DISL,ioos:station:DISL:MHPA:1,2013-08-06T02:00:00Z,30.6671,-87.9365,25.99,1111122 
DISL,ioos:station:DISL:MHPA:1,2013-08-06T02:30:00Z,30.6671,-87.9365,26.24,1111122 
DISL,ioos:station:DISL:MHPA:1,2013-08-06T03:00:00Z,30.6671,-87.9365,26.17,1111122 
DISL,ioos:station:DISL:MHPA:1,2013-08-06T03:30:00Z,30.6671,-87.9365,26.22,1111122 
DISL,ioos:station:DISL:MHPA:1,2013-08-06T04:00:00Z,30.6671,-87.9365,26.15,1111122 
DISL,ioos:station:DISL:MHPA:1,2013-08-06T04:30:00Z,30.6671,-87.9365,26.11,1111122 
DISL,ioos:station:DISL:MHPA:1,2013-08-06T05:00:00Z,30.6671,-87.9365,26.04,1111122 
DISL,ioos:station:DISL:MHPA:1,2013-08-06T05:30:00Z,30.6671,-87.9365,25.45,1111122 
DISL,ioos:station:DISL:MHPA:1,2013-08-06T06:00:00Z,30.6671,-87.9365,25.58,1111122 
DISL,ioos:station:DISL:MHPA:1,2013-08-06T06:30:00Z,30.6671,-87.9365,25.67,1111122 
DISL,ioos:station:DISL:MHPA:1,2013-08-06T07:00:00Z,30.6671,-87.9365,25.62,1111122 
DISL,ioos:station:DISL:MHPA:1,2013-08-06T07:30:00Z,30.6671,-87.9365,25.53,1111122 
DISL,ioos:station:DISL:MHPA:1,2013-08-06T08:00:00Z,30.6671,-87.9365,25.6,1111122 
DISL,ioos:station:DISL:MHPA:1,2013-08-06T08:30:00Z,30.6671,-87.9365,25.51,1111122 
DISL,ioos:station:DISL:MHPA:1,2013-08-06T09:00:00Z,30.6671,-87.9365,25.63,1111122 
DISL,ioos:station:DISL:MHPA:1,2013-08-06T09:30:00Z,30.6671,-87.9365,25.83,1111122 
DISL,ioos:station:DISL:MHPA:1,2013-08-06T10:00:00Z,30.6671,-87.9365,25.58,1111122 
DISL,ioos:station:DISL:MHPA:1,2013-08-06T10:30:00Z,30.6671,-87.9365,25.41,1111122 
DISL,ioos:station:DISL:MHPA:1,2013-08-06T11:00:00Z,30.6671,-87.9365,25.19,1111122 
DISL,ioos:station:DISL:MHPA:1,2013-08-06T11:30:00Z,30.6671,-87.9365,25.16,1111122 
DISL,ioos:station:DISL:MHPA:1,2013-08-06T12:00:00Z,30.6671,-87.9365,25.35,1111122 
DISL,ioos:station:DISL:MHPA:1,2013-08-06T12:30:00Z,30.6671,-87.9365,26.32,1111122 
DISL,ioos:station:DISL:MHPA:1,2013-08-06T13:00:00Z,30.6671,-87.9365,26.97,1111122 
DISL,ioos:station:DISL:MHPA:1,2013-08-06T13:30:00Z,30.6671,-87.9365,27.39,1111122 
DISL,ioos:station:DISL:MHPA:1,2013-08-06T14:00:00Z,30.6671,-87.9365,28.06,1111122 
DISL,ioos:station:DISL:MHPA:1,2013-08-06T14:30:00Z,30.6671,-87.9365,28.21,1111122 
DISL,ioos:station:DISL:MHPA:1,2013-08-06T15:00:00Z,30.6671,-87.9365,29.01,1111122 
DISL,ioos:station:DISL:MHPA:1,2013-08-06T15:30:00Z,30.6671,-87.9365,29.69,1111122 
DISL,ioos:station:DISL:MHPA:1,2013-08-06T16:00:00Z,30.6671,-87.9365,30.68,1111122 
DISL,ioos:station:DISL:MHPA:1,2013-08-06T16:30:00Z,30.6671,-87.9365,31.12,1111122 
DISL,ioos:station:DISL:MHPA:1,2013-08-06T17:00:00Z,30.6671,-87.9365,31.52,1111122 
DISL,ioos:station:DISL:MHPA:1,2013-08-06T17:30:00Z,30.6671,-87.9365,32.14,1111122 
DISL,ioos:station:DISL:MHPA:1,2013-08-06T18:00:00Z,30.6671,-87.9365,32.53,1111122 
DISL,ioos:station:DISL:MHPA:1,2013-08-06T18:30:00Z,30.6671,-87.9365,33.02,1111122 
DISL,ioos:station:DISL:MHPA:1,2013-08-06T19:00:00Z,30.6671,-87.9365,33.1,1111122 
DISL,ioos:station:DISL:MHPA:1,2013-08-06T19:30:00Z,30.6671,-87.9365,33.04,1111122 
DISL,ioos:station:DISL:MHPA:1,2013-08-06T20:00:00Z,30.6671,-87.9365,32.74,1111122 
DISL,ioos:station:DISL:MHPA:1,2013-08-06T20:30:00Z,30.6671,-87.9365,32.51,1111122 
DISL,ioos:station:DISL:MHPA:1,2013-08-06T21:00:00Z,30.6671,-87.9365,32.72,1111122 
DISL,ioos:station:DISL:MHPA:1,2013-08-06T21:30:00Z,30.6671,-87.9365,31.95,1111122 
DISL,ioos:station:DISL:MHPA:1,2013-08-06T22:00:00Z,30.6671,-87.9365,31.61,1111122 
DISL,ioos:station:DISL:MHPA:1,2013-08-06T22:30:00Z,30.6671,-87.9365,30.54,1111122 
DISL,ioos:station:DISL:MHPA:1,2013-08-06T23:00:00Z,30.6671,-87.9365,26.75,1111122 
DISL,ioos:station:DISL:MHPA:1,2013-08-06T23:30:00Z,30.6671,-87.9365,27.89,1111122 